sat.trackr.live / text

‹ back to catalog

COSMOS 2532 (RODNIK-S *)

NORAD 43753 · 2018-097C

PAYLOAD ACTIVE UNKNOWN

§ Identity

Operator
Country
CIS
Launch date
2018-11-30
Launch site
PLMSC
Launch vehicle
Mass (kg)
RCS (m²)

External: N2YO · Heavens-Above · Gunter

§ Orbital elements

Epoch: 2026-05-25T05:52:08.839200Z

Period
115.86 min
Inclination
82.5137°
Eccentricity
0.0019377
Mean motion
12.42909473 rev/d
Perigee alt
1,479.0 km
Apogee alt
1,509.5 km
Semi-major
7,872.4 km
B*
7.1292e-4
RAAN
236.3644°
Arg perigee
107.4620°
Mean anomaly
252.8579°
Rev number
33,942

§ Raw data

COSMOS 2532 (RODNIK-S *)1 43753U 18097C   26145.24454675  .00000109  00000+0  71292-3 0  99952 43753  82.5137 236.3644 0019377 107.4620 252.8579 12.42909473339425

JSON: /api/v1/satellites/43753 · /tle

For live sub-satellite position, see the globe view (requires WebGL).

§ Visibility from observer

Set your observer location to see the next 7 days of passes ≥ 10°. The values pass through the URL so the page stays shareable.

No JS? Fill the form by hand. The geolocation button needs JavaScript.

§ Radio — SatNOGS DB

ModeDescriptionDownlinkUplink
FM UHF Unknown 387.175 MHz
FM UHF Unknown 388.687 MHz

2 transmitters · refreshed weekly from db.satnogs.org